Home   Weather   Reading   Past weeks
Flag for USA

Past Weather in Reading, Pennsylvania, USA — Yesterday and Last 2 Weeks

Now
53 °F

Light rain. Fog.


Feels Like: 50 °F
Forecast: 56 / 45 °F
Wind: 9 mph from North

Location: Reading Regional Airport

Current Time: Oct 20, 2019 at 6:28:47 pm

Latest Report: Oct 20, 2019 at 5:54 pm


Visibility: 3 mi

Pressure: 29.98 "Hg

Humidity: 100%

Dew Point: 53 °F

Location of ReadingLocation

Past Weather in Reading — Graph

°F

Reading Temperature Yesterday

Maximum temperature yesterday: 62 °F (at 3:54 pm)
Minimum temperature yesterday: 35 °F (at 5:54 am)
Average temperature yesterday: 49 °F

High & Low Weather Summary for the Past Weeks

 TemperatureHumidityPressure
High75 °F (Oct 10, 3:54 pm)100% (Oct 6, 4:01 pm)30.35 "Hg (Oct 6, 4:01 pm)
Low35 °F (Oct 19, 5:54 am)34% (Oct 14, 3:54 pm)29.41 "Hg (Oct 17, 4:54 am)
Average57 °F76%30.04 "Hg
* Reported Oct 5 4:54 pm — Oct 20 4:54 pm, Reading. Weather by CustomWeather, © 2019

Note: Actual official high and low records may vary slightly from our data, if they occured in-between our weather recording intervals... More about our weather records

Advertising

Reading Weather History for the Previous 24 Hours

Scroll right to see more
 ConditionsComfort  
Time TempWeatherWind HumidityBarometerVisibility
4:54 pm
Sun, Oct 20
53 °FFog.8 mph100%29.97 "Hg3 mi
4:13 pm52 °FLight rain. Fog.8 mph100%29.95 "Hg3 mi
4:01 pm52 °FLight rain. Mostly cloudy.7 mph100%29.96 "Hg3 mi
2:57 pm52 °FLight rain. Fog.7 mph100%29.95 "Hg3 mi
2:09 pm51 °FLight rain. Fog.7 mph100%29.97 "Hg1 mi
2:05 pm52 °FRain. Fog.6 mph100%29.98 "Hg1 mi
1:54 pm51 °FRain. Fog.6 mph100%30.00 "Hg1 mi
12:54 pm50 °FRain. Fog.5 mph100%30.02 "Hg1 mi
12:06 pm50 °FRain. Fog.No wind100%30.03 "Hg1 mi
11:54 am50 °FRain. Fog.No wind100%30.04 "Hg2 mi
11:38 am50 °FRain. Fog.3 mph96%30.03 "Hg2 mi
10:54 am49 °FLight rain. Fog.3 mph100%30.04 "Hg3 mi
9:54 am47 °FLight rain. Fog.3 mph100%30.03 "Hg6 mi
8:54 am47 °FLight rain. Fog.3 mph93%30.04 "Hg6 mi
7:54 am47 °FLight rain. Partly sunny.3 mph90%30.01 "Hg10 mi
6:54 am46 °FPassing clouds.3 mph93%30.01 "Hg10 mi
5:54 am45 °FPassing clouds.3 mph97%29.99 "Hg10 mi
4:54 am45 °FPassing clouds.3 mph93%29.99 "Hg10 mi
3:54 am45 °FClear.3 mph93%29.99 "Hg10 mi
2:54 am46 °FClear.No wind96%30.01 "Hg10 mi
1:54 am47 °FClear.No wind90%30.02 "Hg10 mi
12:54 am49 °FClear.No wind86%30.03 "Hg10 mi
11:54 pm
Sat, Oct 19
50 °FClear.No wind83%30.02 "Hg10 mi
10:54 pm50 °FClear.No wind86%30.02 "Hg10 mi
9:54 pm52 °FClear.No wind77%30.04 "Hg10 mi
8:54 pm52 °FClear.No wind75%30.03 "Hg10 mi
7:54 pm52 °FClear.3 mph72%30.04 "Hg10 mi
6:54 pm54 °FClear.3 mph64%30.02 "Hg10 mi
Weather by CustomWeather, © 2019

See weather overview